GW5304 Weather Reports


Display with metric or nautical units.
time (UTC)temp
F
wind
direction
speed
MPH
gust
MPH
rain 1hr
in
rain 24hr
in
rain mn
in
humidity
%
barometer
mb
20260507223234 61 282 3.0 5.0 0.00 0.03 0.03 35 1005.0
20260507222730 61 212 1.0 1.0 0.00 0.03 0.03 35 1004.9
20260507222227 61 340 2.0 2.0 0.00 0.03 0.03 34 1005.0
20260507221724 61 312 4.0 7.0 0.00 0.03 0.03 34 1004.8
20260507221220 61 242 0.0 0.0 0.00 0.03 0.03 36 1004.7
20260507220717 62 276 3.0 3.0 0.00 0.03 0.03 33 1004.7
20260507220215 62 284 2.0 2.0 0.00 0.03 0.03 33 1004.7
20260507215711 62 233 2.0 2.0 0.00 0.03 0.03 34 1004.7
20260507215208 62 246 1.0 2.0 0.00 0.03 0.03 35 1004.7
20260507214706 62 231 1.0 1.0 0.00 0.03 0.03 38 1004.7
20260507214202 63 276 3.0 3.0 0.00 0.03 0.03 36 1004.7
20260507213658 63 232 3.0 5.0 0.00 0.03 0.03 34 1004.3
20260507213155 62 253 1.0 1.0 0.00 0.03 0.03 34 1004.5
20260507212651 62 321 2.0 3.0 0.00 0.03 0.03 34 1004.5
20260507212148 62 296 2.0 3.0 0.00 0.03 0.03 35 1004.6
20260507211645 63 234 3.0 5.0 0.00 0.03 0.03 33 1004.4
20260507211140 62 262 2.0 2.0 0.00 0.03 0.03 32 1004.4
20260507210638 63 247 2.0 2.0 0.00 0.03 0.03 34 1004.4
20260507210135 63 238 2.0 2.0 0.00 0.03 0.03 33 1004.4
20260507205631 63 305 2.0 2.0 0.00 0.03 0.03 33 1004.4
20260507205128 63 217 1.0 1.0 0.00 0.03 0.03 32 1004.3
20260507204624 63 239 2.0 3.0 0.00 0.03 0.03 30 1004.5
20260507204122 63 269 3.0 3.0 0.00 0.03 0.03 31 1004.3
20260507203620 63 207 1.0 1.0 0.00 0.03 0.03 31 1004.3
20260507203117 64 355 3.0 3.0 0.00 0.03 0.03 30 1004.4
20260507202613 64 315 4.0 8.0 0.00 0.03 0.03 31 1004.6
20260507202109 65 215 3.0 3.0 0.00 0.03 0.03 31 1004.3
20260507201604 64 223 1.0 2.0 0.00 0.03 0.03 30 1004.3
20260507201101 65 249 0.0 1.0 0.00 0.03 0.03 31 1004.6
20260507200557 64 323 3.0 3.0 0.00 0.03 0.03 30 1004.4
20260507200053 65 255 2.0 3.0 0.00 0.03 0.03 30 1004.5
20260507195550 65 234 1.0 2.0 0.00 0.03 0.03 33 1004.5
20260507195048 64 20 2.0 2.0 0.00 0.03 0.03 30 1004.6
20260507194544 64 200 2.0 2.0 0.00 0.03 0.03 33 1004.6
20260507194040 65 298 5.0 8.0 0.00 0.03 0.03 30 1004.7
20260507193537 65 249 4.0 6.0 0.00 0.03 0.03 31 1004.5
20260507193034 65 285 4.0 6.0 0.00 0.03 0.03 29 1004.6
20260507192530 65 285 3.0 3.0 0.00 0.03 0.03 31 1004.8
20260507192027 64 306 6.0 8.0 0.00 0.03 0.03 31 1004.8
20260507191522 64 291 2.0 3.0 0.00 0.03 0.03 31 1004.7
20260507191020 66 301 2.0 2.0 0.00 0.03 0.03 33 1004.6
20260507190517 65 251 1.0 2.0 0.00 0.03 0.03 30 1005.1
20260507190016 64 217 2.0 3.0 0.00 0.03 0.03 31 1004.9
20260507185514 65 259 5.0 7.0 0.00 0.03 0.03 30 1005.0
20260507185010 65 193 1.0 2.0 0.00 0.03 0.03 31 1005.0
20260507184508 65 228 3.0 5.0 0.00 0.03 0.03 31 1005.1
20260507184006 66 232 3.0 3.0 0.00 0.03 0.03 31 1004.9
20260507183501 66 250 1.0 2.0 0.00 0.03 0.03 32 1004.9
20260507182959 65 213 3.0 3.0 0.00 0.03 0.03 33 1005.0
20260507182455 65 243 3.0 3.0 0.00 0.03 0.03 34 1005.3
20260507181951 65 274 3.0 5.0 0.00 0.03 0.03 31 1005.3
20260507181448 65 350 4.0 6.0 0.00 0.03 0.03 30 1005.2
20260507180944 66 85 3.0 5.0 0.00 0.03 0.03 31 1005.2
20260507180441 66 258 3.0 3.0 0.00 0.03 0.03 32 1005.1
20260507175937 66 252 3.0 5.0 0.00 0.03 0.03 35 1005.2
20260507175434 66 229 2.0 2.0 0.00 0.03 0.03 35 1005.2
20260507174932 64 268 1.0 1.0 0.00 0.03 0.03 37 1005.1
20260507174428 64 279 3.0 5.0 0.00 0.03 0.03 37 1005.2
20260507173926 64 336 2.0 2.0 0.00 0.03 0.03 37 1005.2
20260507173423 64 203 3.0 3.0 0.00 0.03 0.03 38 1005.3
20260507172919 64 176 5.0 5.0 0.00 0.03 0.03 39 1005.1
20260507172416 64 256 1.0 1.0 0.00 0.03 0.03 39 1005.3
20260507171912 63 302 6.0 9.0 0.00 0.03 0.03 43 1005.4
20260507171409 63 29 3.0 3.0 0.00 0.03 0.03 46 1005.5
20260507170906 64 174 2.0 2.0 0.00 0.03 0.03 50 1005.3
20260507170402 63 320 2.0 3.0 0.00 0.03 0.03 47 1005.2
20260507165859 62 198 3.0 3.0 0.00 0.03 0.03 49 1005.4
20260507165354 62 268 2.0 3.0 0.00 0.03 0.03 54 1005.5
20260507164851 62 284 5.0 7.0 0.00 0.03 0.03 52 1005.5
20260507164348 63 333 1.0 3.0 0.00 0.03 0.03 54 1005.7
20260507163845 60 276 1.0 2.0 0.00 0.03 0.03 56 1005.8
20260507163342 60 237 1.0 1.0 0.00 0.03 0.03 52 1005.7
20260507162839 61 184 3.0 5.0 0.00 0.03 0.03 54 1005.9
20260507162334 60 291 2.0 2.0 0.00 0.03 0.03 53 1005.8
20260507161832 62 290 2.0 3.0 0.00 0.03 0.03 50 1005.9
20260507161328 63 263 3.0 3.0 0.00 0.03 0.03 51 1005.9
20260507160825 62 244 1.0 2.0 0.00 0.03 0.03 53 1006.0
20260507160321 63 275 3.0 5.0 0.00 0.03 0.03 49 1006.0
20260507155817 63 308 2.0 6.0 0.00 0.03 0.03 51 1006.2
20260507155313 61 240 1.0 1.0 0.00 0.03 0.03 52 1006.2
20260507154809 62 327 3.0 3.0 0.00 0.03 0.03 49 1006.0
20260507154307 63 226 3.0 5.0 0.00 0.03 0.03 49 1006.2
20260507153804 63 243 1.0 1.0 0.00 0.03 0.03 50 1006.2
20260507153300 62 189 3.0 3.0 0.00 0.03 0.03 45 1006.1
20260507152757 61 275 2.0 2.0 0.00 0.03 0.03 48 1006.1
20260507152253 61 296 2.0 2.0 0.00 0.03 0.03 50 1006.6
20260507151749 60 324 3.0 5.0 0.00 0.03 0.03 50 1006.4
20260507151245 61 235 1.0 2.0 0.00 0.03 0.03 52 1006.5
20260507150742 59 210 1.0 1.0 0.00 0.03 0.03 51 1006.6
20260507150239 60 209 1.0 2.0 0.00 0.03 0.03 51 1006.7
20260507145735 60 205 2.0 2.0 0.00 0.03 0.03 51 1006.7
20260507145232 60 210 1.0 2.0 0.00 0.03 0.03 54 1007.0
20260507144729 60 244 2.0 2.0 0.00 0.03 0.03 53 1006.7
20260507144227 61 204 1.0 1.0 0.00 0.03 0.03 55 1006.7
20260507143723 60 246 0.0 1.0 0.00 0.03 0.03 55 1006.8
20260507143220 60 236 3.0 3.0 0.00 0.03 0.03 57 1006.8
20260507142716 60 237 1.0 1.0 0.00 0.03 0.03 55 1006.8
20260507142213 60 217 1.0 2.0 0.00 0.03 0.03 55 1006.8
20260507141709 59 246 1.0 1.0 0.00 0.03 0.03 56 1006.8
20260507141206 59 260 2.0 2.0 0.00 0.03 0.03 54 1006.7
20260507140702 59 269 1.0 1.0 0.00 0.03 0.03 56 1006.9
20260507140200 59 249 2.0 2.0 0.00 0.03 0.03 57 1006.7
20260507135657 59 297 5.0 6.0 0.00 0.03 0.03 55 1006.8
20260507135154 59 248 1.0 1.0 0.00 0.03 0.03 60 1006.8
20260507134650 58 206 1.0 1.0 0.00 0.03 0.03 58 1006.8
20260507134147 58 304 2.0 2.0 0.00 0.03 0.03 59 1006.9
20260507133643 57 294 3.0 5.0 0.00 0.03 0.03 59 1006.9
20260507133140 58 245 1.0 2.0 0.00 0.03 0.03 59 1006.8
20260507132637 57 241 1.0 2.0 0.00 0.03 0.03 63 1007.1
20260507132133 57 227 1.0 1.0 0.00 0.03 0.03 62 1007.1
20260507131630 57 237 1.0 1.0 0.00 0.03 0.03 62 1007.2
20260507131128 55 289 1.0 2.0 0.00 0.03 0.03 61 1007.3
20260507130624 56 244 2.0 2.0 0.00 0.03 0.03 63 1007.5
20260507130122 56 317 5.0 6.0 0.00 0.03 0.03 63 1007.4
20260507125621 55 255 2.0 2.0 0.00 0.03 0.03 65 1007.4
20260507125118 54 271 0.0 1.0 0.00 0.03 0.03 67 1007.2
20260507124614 54 280 3.0 3.0 0.00 0.03 0.03 67 1007.3
20260507124112 53 238 1.0 2.0 0.00 0.03 0.03 70 1007.2
20260507123610 53 249 2.0 2.0 0.00 0.03 0.03 71 1007.2
20260507123107 53 287 4.0 6.0 0.00 0.03 0.03 72 1007.4
20260507122602 51 206 2.0 2.0 0.00 0.03 0.03 75 1007.3
20260507122058 51 240 0.0 1.0 0.00 0.03 0.03 77 1007.3
20260507121554 51 268 1.0 1.0 0.00 0.03 0.03 78 1007.2
20260507121050 51 252 1.0 1.0 0.00 0.03 0.03 78 1007.4
20260507120546 51 253 3.0 3.0 0.00 0.03 0.03 78 1007.3
20260507120043 50 274 1.0 2.0 0.00 0.03 0.03 79 1007.4
20260507115539 50 233 1.0 1.0 0.00 0.03 0.03 80 1007.3
20260507115035 50 265 2.0 2.0 0.00 0.03 0.03 80 1007.1
20260507114531 50 244 0.0 1.0 0.00 0.03 0.03 81 1007.3
20260507114029 49 240 1.0 1.0 0.00 0.03 0.03 83 1007.2
20260507113526 49 243 1.0 1.0 0.00 0.03 0.03 84 1007.2
20260507113023 49 250 1.0 1.0 0.00 0.03 0.03 85 1007.0
20260507112521 49 242 1.0 1.0 0.00 0.03 0.03 85 1007.0
20260507112017 49 237 0.0 1.0 0.00 0.03 0.03 85 1006.9
20260507111514 49 311 2.0 2.0 0.00 0.03 0.03 87 1006.9
20260507111010 49 291 1.0 2.0 0.00 0.03 0.03 88 1007.1
20260507110508 48 260 1.0 1.0 0.00 0.03 0.03 87 1007.3
20260507110004 48 255 1.0 1.0 0.00 0.03 0.03 88 1007.3
20260507105500 49 242 0.0 0.0 0.00 0.03 0.03 89 1007.5
20260507104957 48 241 0.0 1.0 0.00 0.03 0.03 88 1007.3
20260507104454 49 235 0.0 0.0 0.00 0.03 0.03 88 1007.1
20260507103950 48 229 1.0 2.0 0.00 0.03 0.03 88 1006.8
20260507103447 48 243 0.0 0.0 0.00 0.03 0.03 89 1006.6
20260507102943 48 237 0.0 0.0 0.07 0.03 0.03 89 1006.7
20260507102440 48 266 3.0 3.0 0.07 0.03 0.03 89 1006.8
20260507101936 48 251 1.0 1.0 0.00 0.02 0.02 89 1007.1
20260507101431 48 254 1.0 1.0 0.00 0.02 0.02 90 1006.9
20260507100928 48 246 2.0 2.0 0.00 0.02 0.02 90 1006.6
20260507100426 48 227 0.0 1.0 0.00 0.02 0.02 91 1006.3
20260507095924 48 249 1.0 2.0 0.00 0.02 0.02 91 1006.7
20260507095421 48 264 1.0 1.0 0.00 0.02 0.02 90 1006.6
20260507094918 48 241 0.0 1.0 0.00 0.02 0.02 90 1006.7
20260507094414 49 310 1.0 2.0 0.05 0.02 0.02 89 1006.9
20260507093911 49 278 1.0 1.0 0.05 0.02 0.02 89 1006.7
20260507093409 49 244 1.0 1.0 0.00 0.01 0.01 89 1006.6
20260507092907 49 263 1.0 1.0 0.00 0.01 0.01 90 1006.4
20260507092403 49 244 0.0 1.0 0.00 0.01 0.01 91 1006.8
20260507091900 49 251 1.0 1.0 0.00 0.01 0.01 91 1006.9
20260507091356 50 255 0.0 1.0 0.00 0.01 0.01 91 1006.9
20260507090852 50 247 1.0 1.0 0.00 0.01 0.01 91 1006.8
20260507090348 50 263 1.0 1.0 0.00 0.01 0.01 91 1006.6
20260507085845 49 266 1.0 1.0 0.00 0.01 0.01 91 1006.7
20260507085342 50 249 2.0 2.0 0.00 0.01 0.01 91 1006.8
20260507084840 49 244 1.0 1.0 0.00 0.01 0.01 92 1006.3
20260507084336 50 252 1.0 1.0 0.00 0.01 0.01 92 1006.3
20260507083833 50 250 1.0 1.0 0.00 0.01 0.01 92 1006.4
20260507083330 50 242 0.0 0.0 0.00 0.01 0.01 92 1006.2
20260507082826 50 243 0.0 0.0 0.00 0.01 0.01 92 1006.0
20260507082321 50 262 2.0 2.0 0.00 0.01 0.01 92 1006.1
20260507081819 50 249 2.0 2.0 0.00 0.01 0.01 92 1006.2
20260507081315 50 268 0.0 1.0 0.00 0.01 0.01 92 1006.4
20260507080811 51 245 1.0 2.0 0.07 0.01 0.01 91 1006.6
20260507080308 51 275 3.0 3.0 0.07 0.01 0.01 90 1006.5
20260507075803 51 245 0.0 1.0 0.07 0.01 0.01 88 1006.4
20260507075259 51 313 3.0 3.0 0.00 0.00 0.00 87 1006.2
20260507074756 52 259 1.0 2.0 0.00 0.00 0.00 87 1006.3
20260507074254 51 237 1.0 1.0 0.00 0.00 0.00 87 1006.1
20260507073751 52 252 1.0 1.0 0.00 0.00 0.00 87 1005.8
20260507073247 52 248 1.0 2.0 0.00 0.00 0.00 87 1005.8
20260507072745 52 249 2.0 2.0 0.00 0.00 0.00 87 1005.9
20260507072242 52 281 3.0 3.0 0.00 0.00 0.00 87 1006.0
20260507071740 52 247 1.0 1.0 0.00 0.00 0.00 87 1005.8
20260507071236 52 272 3.0 3.0 0.00 0.00 0.00 86 1005.7
20260507070733 52 269 2.0 2.0 0.00 0.00 0.00 86 1005.6
20260507070230 52 249 0.0 0.0 0.00 0.00 0.00 86 1005.5
20260507065726 52 281 2.0 3.0 0.00 0.00 0.00 86 1005.8
20260507065223 52 257 3.0 3.0 0.00 0.00 0.00 86 1005.7
20260507064721 52 260 1.0 1.0 0.00 0.00 0.00 87 1005.6
20260507064220 52 246 1.0 1.0 0.00 0.00 0.00 88 1005.7
20260507063716 52 249 1.0 1.0 0.00 0.00 0.00 87 1005.7
20260507063213 52 250 1.0 1.0 0.00 0.00 0.00 88 1005.4
20260507062710 53 246 1.0 2.0 0.00 0.00 0.00 89 1005.3
20260507062208 53 290 5.0 7.0 0.00 0.00 0.00 90 1005.6
20260507061705 53 254 1.0 1.0 0.00 0.00 0.00 91 1005.5
20260507061203 53 297 2.0 3.0 0.00 0.00 0.00 92 1005.6
20260507060701 53 309 1.0 1.0 0.00 0.00 0.00 92 1005.6
20260507060157 53 244 1.0 1.0 0.00 0.00 0.00 92 1005.5
20260507055653 54 261 1.0 2.0 0.00 0.00 0.00 93 1005.7
20260507055149 54 245 1.0 1.0 0.00 0.00 0.00 92 1005.6
20260507054645 54 270 4.0 5.0 0.00 0.00 0.00 92 1005.8
20260507054142 54 254 2.0 2.0 0.00 0.00 0.00 92 1005.8
20260507053640 54 255 3.0 3.0 0.00 0.00 0.00 92 1005.7
20260507053138 54 255 2.0 3.0 0.00 0.00 0.00 94 1005.7
20260507052636 54 244 1.0 1.0 0.00 0.00 0.00 95 1005.7
20260507052132 54 240 0.0 1.0 0.00 0.00 0.00 96 1005.6
20260507051630 55 259 4.0 5.0 0.00 0.00 0.00 96 1005.6
20260507051126 56 264 2.0 3.0 0.00 0.00 0.00 97 1005.6
20260507050623 57 275 0.0 0.0 0.00 0.00 0.00 98 1006.0
20260507050120 57 266 2.0 2.0 0.00 0.00 0.00 98 1005.8
20260507045617 57 252 1.0 1.0 0.00 0.00 0.00 98 1005.6
20260507045114 57 275 1.0 2.0 0.00 0.00 0.00 98 1005.4
20260507044610 57 283 2.0 2.0 0.00 0.00 0.00 99 1005.5
20260507044108 58 299 3.0 3.0 0.00 0.00 0.00 99 1005.5
20260507043603 58 243 0.0 1.0 0.00 0.00 0.00 99 1005.4
20260507043101 58 242 0.0 0.0 0.00 0.00 0.00 99 1005.8
20260507042556 58 345 3.0 5.0 0.00 0.00 0.00 99 1005.4
20260507042052 59 236 0.0 0.0 0.00 0.00 0.00 99 1005.5
20260507041549 59 248 0.0 0.0 0.00 0.00 0.00 99 1005.4
20260507041046 59 247 0.0 0.0 0.00 0.00 0.00 99 1005.8
20260507040542 59 241 0.0 0.0 0.00 0.00 0.00 99 1005.6
20260507040038 59 213 0.0 0.0 0.05 0.13 0.13 99 1005.4
20260507035535 59 222 0.0 0.0 0.05 0.13 0.13 99 1005.2
20260507035031 59 243 1.0 1.0 0.00 0.12 0.12 99 1005.3
20260507034528 59 218 2.0 2.0 0.00 0.12 0.12 99 1005.3
20260507034026 59 224 1.0 1.0 0.00 0.12 0.12 99 1005.5
20260507033524 59 196 3.0 3.0 0.00 0.12 0.12 99 1005.4
20260507033021 59 209 1.0 1.0 0.00 0.12 0.12 99 1005.1
20260507032518 59 202 1.0 2.0 0.00 0.12 0.12 99 1005.0
20260507032014 59 221 1.0 1.0 0.00 0.12 0.12 99 1005.0
20260507031510 59 235 1.0 1.0 0.00 0.12 0.12 99 1004.7
20260507031008 59 192 2.0 2.0 0.00 0.12 0.12 99 1004.8
20260507030504 59 212 1.0 2.0 0.00 0.12 0.12 99 1004.7
20260507030002 59 203 1.0 1.0 0.00 0.12 0.12 99 1004.8
20260507025458 59 237 1.0 1.0 0.00 0.12 0.12 99 1004.8
20260507024956 59 213 2.0 2.0 0.00 0.12 0.12 99 1004.8
20260507024453 58 211 2.0 2.0 0.00 0.12 0.12 99 1004.9
20260507023949 58 234 1.0 1.0 0.00 0.12 0.12 99 1004.9
20260507023446 58 195 3.0 5.0 0.00 0.12 0.12 99 1004.9
20260507022943 58 222 3.0 3.0 0.00 0.12 0.12 99 1005.0
20260507022441 58 235 2.0 2.0 0.00 0.12 0.12 99 1005.0
20260507021936 58 185 2.0 2.0 0.00 0.12 0.12 99 1004.7
20260507021431 58 227 1.0 2.0 0.00 0.12 0.12 99 1004.8
20260507020930 58 192 4.0 5.0 0.00 0.12 0.12 99 1005.0
20260507020426 58 182 3.0 3.0 0.00 0.12 0.12 99 1005.0
20260507015923 58 229 2.0 2.0 0.00 0.12 0.12 99 1005.0
20260507015421 58 205 2.0 2.0 0.00 0.12 0.12 99 1005.1
20260507014918 58 215 1.0 2.0 0.00 0.12 0.12 99 1005.0
20260507014414 58 185 1.0 2.0 0.00 0.12 0.12 99 1005.2
20260507013910 58 205 2.0 2.0 0.00 0.12 0.12 99 1005.1
20260507013408 58 189 1.0 2.0 0.00 0.12 0.12 99 1005.2
20260507012905 58 211 3.0 3.0 0.00 0.12 0.12 99 1005.2
20260507012401 58 188 1.0 2.0 0.00 0.12 0.12 99 1005.5
20260507011859 58 189 3.0 3.0 0.00 0.12 0.12 99 1005.3
20260507011355 58 202 1.0 2.0 0.00 0.12 0.12 99 1005.1
20260507010855 57 202 0.0 0.0 0.00 0.12 0.12 99 1005.4
20260507010351 57 171 2.0 2.0 0.00 0.12 0.12 99 1005.3
20260507005848 57 212 1.0 2.0 0.00 0.12 0.12 99 1005.4
20260507005345 57 201 1.0 1.0 0.00 0.12 0.12 99 1005.2
20260507004842 57 209 2.0 2.0 0.00 0.12 0.12 99 1005.3
20260507004339 57 197 2.0 2.0 0.00 0.12 0.12 99 1005.6
20260507003836 57 233 0.0 1.0 0.00 0.12 0.12 99 1005.4
20260507003331 57 194 3.0 3.0 0.00 0.12 0.12 99 1005.3
20260507002826 57 215 2.0 3.0 0.00 0.12 0.12 99 1005.4
20260507002323 57 219 3.0 3.0 0.00 0.12 0.12 99 1005.3
20260507001820 57 196 2.0 2.0 0.00 0.12 0.12 99 1005.2
20260507001317 57 198 2.0 2.0 0.00 0.12 0.12 99 1004.9
20260507000813 57 201 2.0 2.0 0.00 0.12 0.12 99 1004.9
20260507000309 57 201 1.0 2.0 0.00 0.12 0.12 99 1005.1
20260506235806 57 208 1.0 2.0 0.00 0.12 0.12 99 1005.2
20260506235306 57 198 1.0 1.0 0.07 0.12 0.12 99 1005.2
20260506234759 57 228 2.0 2.0 0.12 0.12 0.12 99 1005.1
20260506234256 58 187 3.0 3.0 0.19 0.11 0.11 99 1005.1
20260506233754 58 195 2.0 2.0 0.14 0.10 0.10 99 1005.0
20260506233250 58 208 1.0 1.0 0.07 0.09 0.09 98 1005.1
20260506232747 58 187 2.0 2.0 0.00 0.08 0.08 98 1005.1
20260506232241 58 229 1.0 1.0 0.00 0.08 0.08 98 1005.1
20260506231739 58 206 1.0 2.0 0.00 0.08 0.08 98 1005.3
20260506231238 58 199 3.0 5.0 0.00 0.08 0.08 98 1005.2
20260506230734 59 188 4.0 6.0 0.00 0.08 0.08 98 1005.4
20260506230231 59 203 3.0 3.0 0.00 0.08 0.08 98 1005.3
20260506225727 59 191 2.0 2.0 0.00 0.08 0.08 98 1005.4
20260506225225 59 210 3.0 3.0 0.00 0.08 0.08 98 1005.4
20260506224721 59 183 2.0 2.0 0.00 0.08 0.08 98 1005.2
20260506224218 59 207 1.0 1.0 0.00 0.08 0.08 98 1005.3
20260506223714 59 167 3.0 3.0 0.00 0.08 0.08 98 1005.2